Regional Weather Roundup
Issued by NWS

Home | Current Version | Previous Version | Text Only | Print | Product List | Glossary Off
Versions: 1 2 3 4 5 6 7 8 9 10 11 12 13 14 15 16 17 18 19 20 21 22 23 24 25 26 27 28 29 30 31 32 33 34 35 36 37 38 39 40 41 42 43 44 45 46 47 48 49 50

000
ASUS43 KMKX 021911
RWRWI

WISCONSIN REGIONAL WEATHER ROUNDUP
NATIONAL WEATHER SERVICE MILWAUKEE/SULLIVAN WI
200 PM CDT TUE SEP 02 2014

NOTE: "FAIR" INDICATES FEW OR NO CLOUDS BELOW 12,000 FEET WITH NO
SIGNIFICANT WEATHER AND/OR OBSTRUCTIONS TO VISIBILITY.

WIZ001-002-006>008-014>016-023>028-022000-
NORTHWEST WISCONSIN

CITY           SKY/WX    TMP DP  RH WIND       PRES   REMARKS
SUPERIOR ARPT  PTSUNNY   76  54  46 SW13      29.81S
ASHLAND        SUNNY     75  52  44 SW8       29.84S
HAYWARD        SUNNY     73  50  44 W8        29.87S
SIREN          MOSUNNY   74  51  43 SW9       29.88S
RICE LAKE      SUNNY     73  53  48 W8        29.90S
LADYSMITH      SUNNY     74  52  46 W8        29.90S
EAU CLAIRE     MOSUNNY   77  56  48 W12       29.88S
MENOMONIE      PTCLDY    77  54  45 W9        29.89R
NEW RICHMOND   SUNNY     75  50  42 W5        29.90S
OSCEOLA        SUNNY     74  53  47 SW9       29.91S
$$

WIZ003>005-009-010-017-018-022000-
NORTH CENTRAL WISCONSIN

CITY           SKY/WX    TMP DP  RH WIND       PRES   REMARKS
WOODRUFF       SUNNY     72  51  47 W10       29.88R
RHINELANDER    SUNNY     73  50  44 W12       29.89R
EAGLE RIVER    MOSUNNY   71  48  43 W10       29.86S
LAND O LAKES   MOSUNNY   73  49  42 W10G18    29.87S
PHILLIPS       PTSUNNY   72  52  50 W7        29.88R
TOMAHAWK       PTSUNNY   73  51  46 SW3       29.89S
MEDFORD        MOSUNNY   69  55  59 W7G20     29.90R
MERRILL        SUNNY     74  54  48 W9        29.88S
$$

WIZ029-030-035-036-043>047-022000-
CENTRAL WISCONSIN

CITY           SKY/WX    TMP DP  RH WIND       PRES   REMARKS
WAUSAU         MOSUNNY   75  56  51 W10       29.88R
MOSINEE        MOSUNNY   73  57  56 W9        29.90S
MARSHFIELD     PTSUNNY   72  59  63 W8        29.89S
STEVENS POINT  MOSUNNY   72  57  58 SW9G18    29.90S
WAUPACA        PTSUNNY   76  56  49 W9        29.89S
WAUTOMA        LGT RAIN  76  57  51 W8        29.90R
WISC RAPIDS    MOSUNNY   77  58  51 W10       29.91S
CAMP DOUGLAS   MOSUNNY   77  57  50 W10G18    29.90S
$$

WIZ011>013-019>022-031-037>040-048>050-022000-
NORTHEAST WISCONSIN

CITY           SKY/WX    TMP DP  RH WIND       PRES   REMARKS
ANTIGO         MOSUNNY   71  56  59 W9        29.89R
STURGEON BAY   MOSUNNY   72  57  60 W9        29.87R
GREEN BAY      MOSUNNY   76  62  62 W13       29.87S
MANITOWOC      MOSUNNY   76  61  59 W9        29.88S
APPLETON       PTSUNNY   75  57  53 W12       29.89S
CLINTONVILLE   MOSUNNY   75  59  57 W8        29.87S
OSHKOSH        SUNNY     77  59  53 VRB6      29.88S HAZE
$$

WIZ032>034-041-042-053>061-022000-
SOUTHWEST WISCONSIN

CITY           SKY/WX    TMP DP  RH WIND       PRES   REMARKS
LA CROSSE      SUNNY     79  57  46 W10       29.90S HX  80
SPARTA         MOSUNNY   76  53  45 SW8       29.91S
VIROQUA        FAIR      76  56  50 W8        29.93S
BOSCOBEL       SUNNY     79  56  45 W8G16     29.91F HX  80
PRAIRIE DU CHI MOSUNNY   77  54  44 W7        29.92R
PLATTEVILLE    FAIR      75  60  58 W12       29.94R
$$

WIZ056-057-062-063-064-067-068-022000-
SOUTH CENTRAL WISCONSIN

CITY           SKY/WX    TMP DP  RH WIND       PRES   REMARKS
BARABOO/DELLS  SUNNY     78  49  36 W6        29.91R
LONE ROCK      SUNNY     80  55  42 W10       29.91S HX  80
WATERTOWN      PTSUNNY   74  59  58 NW7       29.91S
MADISON        MOSUNNY   76  56  49 VRB3      29.91S
MIDDLETON      FAIR      77  57  51 W7        29.92R
MONROE         PTSUNNY   77  59  53 SW17      29.92S
JANESVILLE     MOSUNNY   79  57  47 W7        29.90F HX  80
$$

WIZ051-052-058>065-066-070>072-022000-
SOUTHEAST WISCONSIN

CITY           SKY/WX    TMP DP  RH WIND       PRES   REMARKS
MILWAUKEE      PTSUNNY   77  55  46 W10       29.90S
WAUKESHA       PTSUNNY   72  57  60 W8        29.92S
MILWAUKEE/TIMM PTSUNNY   77  55  47 SW8       29.90S
RACINE         CLOUDY    79  59  50 VRB3      29.91S HX  80
BURLINGTON     MOSUNNY   75  55  49 W7        29.92R
KENOSHA        MOSUNNY   79  60  52 W12       29.91R HX  80
FOND DU LAC    MOSUNNY   77  57  50 W12       29.89S
SHEBOYGAN      MOSUNNY   75  62  64 W9        29.89S
WEST BEND      CLOUDY    73  57  56 W10       29.91R
JUNEAU         MOSUNNY   73  60  63 SW6       29.92S
$$

LSZ147-162-022000-
LAKE SUPERIOR

STATION/POSITION TIME  TEMP    WIND        PRES    WAVE
                       AIR SEA DIR/SP/G            HT/PER
                 (UTC) (F)     (DEG/KT/KT) (MB)    (FT/S)
W MID LAKE BUOY  1850   60 58  210/ 12/ 14 1008.7F   2/ 4
DEVILS ISLAND    1900   67     230/ 14/ 17 1009.1F
PORT WING        1800   70     270/  9/ 12 1009.8F
SAXON HARBOR     1800   74      CALM  /  8 1010.2
$$

LMZ867-665-643>646-022000-
LAKE MICHIGAN

STATION/POSITION TIME  TEMP    WIND        PRES    WAVE
                       AIR SEA DIR/SP/G            HT/PER
                 (UTC) (F)     (DEG/KT/KT) (MB)    (FT/S)
N MID LAKE BUOY  1850   65 65  230/ 10/ 10 1010.4R   1/ 5
NORTHPORT PIER   1800   66     280/  3/  6 1010.5R
KEWAUNEE LAKESHO 1800   71     170/  3/  5 1010.5F
SHEBOYGAN LAKESH 1900   73 50  240/ 12/ 15 1012.1R
ATWATER BUOY     1900   70     140/  8/ 10 1013.4R
MILWAUKEE LAKESH 1800   76     250/  5/  9   N/A
S MID LAKE BUOY  1850   72 73  200/  4/  6 1012.6R   0
KENOSHA   LAKESH 1900   73     130/ 10/ 11 1012.2R
$$

TC  - TEMPERATURE IN CELSIUS
VSB - VISIBILITY IN STATUTE MILES
WCI - WIND CHILL INDEX
HX  - HEAT INDEX




USA.gov is the U.S. government's official web portal to all federal, state and local government web resources and services.